User: anonymous   Login
Location: Unspecified
(0.0000°N, 0.0000°E)
Time: 17:21:42
(UTC+00:00)
Language:

Amsat-Oscar-6 - Orbit

View from above orbital plane
View from above orbital plane
View from above satellite
View from above satellite

Ground track
Ground track

The orbit data is extracted from the following two-line orbital elements,

1  6236U 72082B   18145.51414964 -.00000033 +00000-0 +74892-4 0  9990
2  6236 101.7651 111.6474 0004428 024.5284 083.5562 12.53143275086104
Epoch (UTC): 25 May 2018 12:20:22
Eccentricity: 0.0004428
inclination: 101.7651°
perigee height: 1448 km
apogee height: 1455 km
right ascension of ascending node: 111.6474°
argument of perigee: 24.5284°
revolutions per day: 12.53143275
mean anomaly at epoch: 83.5562°
orbit number at epoch: 8610

The dashed part of the orbit path shows where the satellite is in the earth's shadow,  

DLR